Content
SEND FEEDBACK

Daily
Averages
Monthly
Summary
Canada

STEVESTON, BRITISH COLUMBIA


Home > North America > Canada > British Columbia
Elevation: 7 feet     Latitude: 49 10N     Longitude: 123 10W

WEATHER
 
SELECT A DAY
Number of Records: 249,704;   Date Range: 5/15/97 - 8/31/14
 
SHARE

PRINT THIS DATA

[ ← Previous Day ]
WEATHER ALMANAC - APRIL 5, 2013
[ Next Day → ]
[ °C ]   °F
Weather ElementAverageHighLow
Temperature51.6 °F57.2 °F (2:15 pm)48.2 °F (6:15 am)
Dewpoint47.3 °F50 °F (12:35 pm)44.6 °F (7:35 am)
Humidity85.6 %94 % (2:55 am)67 % (4:55 pm)
Barometer29.73 in29.81 in (12:15 pm)29.62 in (12:35 am)
Wind Speed7.2 mph12.7 mph (1:15 am)
Wind Gust23 mph (1:15 am)
Weather ElementAverage
Visibility9.4 mi
Wind DirectionSSE (160.1 °)

Weather ElementTotal
Precipitation0.05 in
Heating Degree Days12.3 (Base 65)
Growing Degree Days2.7 (Base 50)
Averaged from 68 records on April 5, 2013
WEATHER CONDITIONS BREAKOUT
WIND DIRECTION BREAKOUT
WEATHER BY HOUR - APRIL 5, 2013
[ °C ]   °F
Local TimeTemperatureDewpointHumidityBarometerVisibilityWind DirectionWind SpeedGust SpeedPrecipitationEventsConditions
12:35 AM53.6 °F48.2 °F82 %29.62 in10.0 miSouth (180°)10.4 mph18.4 mphOvercast
12:55 AM53.6 °F48.2 °F82 %29.63 in10.0 miSouth (180°)11.5 mph17.3 mphOvercast
1:15 AM53.6 °F48.2 °F82 %29.63 in10.0 miSouth (180°)12.7 mph23.0 mphOvercast
1:35 AM51.8 °F48.2 °F88 %29.64 in10.0 miSouth (190°)10.4 mphOvercast
1:55 AM51.8 °F48.2 °F88 %29.64 in10.0 miSouth (180°)8.1 mphOvercast
2:15 AM51.8 °F48.2 °F88 %29.64 in10.0 miSouth (190°)10.4 mph16.1 mphOvercast
2:35 AM51.8 °F48.2 °F88 %29.64 in10.0 miSouth (180°)5.8 mphOvercast
2:55 AM50.0 °F48.2 °F94 %29.64 in10.0 miSouth (190°)5.8 mphRainLight Rain
3:15 AM50.0 °F48.2 °F94 %29.64 in10.0 miSW (220°)8.1 mphOvercast
3:35 AM50.0 °F48.2 °F94 %29.64 in10.0 miSouth (170°)4.6 mphOvercast
3:55 AM50.0 °F48.2 °F94 %29.65 in10.0 miSouth (190°)8.1 mphOvercast
4:15 AM50.0 °F48.2 °F94 %29.66 in10.0 miSSW (200°)6.9 mphScattered Clouds
4:35 AM50.0 °F48.2 °F94 %29.67 in10.0 miSSW (200°)6.9 mphClear
4:55 AM50.0 °F48.2 °F94 %29.68 in7.0 miSSW (200°)10.4 mphRainLight Rain
5:15 AM50.0 °F48.2 °F94 %29.69 in5.0 miSouth (190°)6.9 mphRainLight Rain
5:35 AM50.0 °F48.2 °F94 %29.70 in4.0 miSouth (190°)6.9 mphRainRain
5:55 AM50.0 °F48.2 °F94 %29.70 in7.0 miSSW (200°)6.9 mphRainLight Rain
6:15 AM48.2 °F46.4 °F93 %29.71 in4.0 miSW (220°)9.2 mph0.01 inRainRain
6:35 AM48.2 °F46.4 °F93 %29.72 in5.0 miSSW (200°)6.9 mph0.01 inRainLight Rain
6:55 AM48.2 °F46.4 °F93 %29.72 in10.0 miSSW (200°)5.8 mph0.01 inMostly Cloudy
7:15 AM48.2 °F46.4 °F93 %29.72 in10.0 miSSW (200°)8.1 mphMostly Cloudy
7:35 AM48.2 °F44.6 °F87 %29.73 in10.0 miSSW (200°)9.2 mph0.01 inScattered Clouds
7:55 AM50.0 °F44.6 °F82 %29.74 in10.0 miSSW (210°)12.7 mph18.4 mph0.01 inPartly Cloudy
8:15 AM50.0 °F44.6 °F82 %29.75 in10.0 miSouth (190°)9.2 mph18.4 mphMostly Cloudy
8:35 AM48.2 °F46.4 °F93 %29.76 in10.0 miSouth (190°)10.4 mphOvercast
8:55 AM48.2 °F46.4 °F93 %29.77 in10.0 miSouth (190°)8.1 mphOvercast
9:15 AM48.2 °F46.4 °F93 %29.77 in10.0 miSSW (200°)10.4 mphOvercast
9:35 AM48.2 °F46.4 °F93 %29.78 in9.0 miSouth (180°)5.8 mphOvercast
9:55 AM48.2 °F46.4 °F93 %29.78 in10.0 miSouth (190°)6.9 mphOvercast
10:15 AM50.0 °F46.4 °F87 %29.78 in10.0 miSouth (190°)10.4 mphMostly Cloudy
10:35 AM51.8 °F46.4 °F82 %29.79 in10.0 miSouth (190°)8.1 mphScattered Clouds
10:55 AM50.0 °F46.4 °F87 %29.80 in10.0 miSSE (150°)3.5 mphMostly Cloudy
11:15 AM51.8 °F46.4 °F82 %29.80 in10.0 miSouth (190°)9.2 mphMostly Cloudy
11:35 AM53.6 °F48.2 °F82 %29.80 in10.0 miSouth (190°)6.9 mphScattered Clouds
11:55 AM51.8 °F48.2 °F88 %29.80 in10.0 miSouth (190°)6.9 mphScattered Clouds
12:15 PM53.6 °F48.2 °F82 %29.81 in9.0 miSSW (200°)10.4 mphRainLight Rain
12:35 PM55.4 °F50.0 °F82 %29.81 in10.0 miSouth (190°)10.4 mphPartly Cloudy
12:55 PM53.6 °F48.2 °F82 %29.80 in10.0 miSouth (190°)9.2 mphScattered Clouds
1:15 PM53.6 °F48.2 °F82 %29.80 in10.0 miSouth (190°)10.4 mphMostly Cloudy
1:35 PM53.6 °F48.2 °F82 %29.80 in10.0 miSouth (180°)6.9 mphScattered Clouds
2:15 PM57.2 °F48.2 °F72 %29.80 in10.0 miSSW (200°)8.1 mphClear
2:35 PM55.4 °F48.2 °F77 %29.81 in10.0 miSSW (210°)4.6 mphMostly Cloudy
2:55 PM55.4 °F48.2 °F77 %29.81 in10.0 miCalmOvercast
3:15 PM53.6 °F48.2 °F82 %29.81 in10.0 miCalmMostly Cloudy
3:35 PM55.4 °F48.2 °F77 %29.80 in10.0 miCalmPartly Cloudy
3:55 PM55.4 °F48.2 °F77 %29.80 in10.0 miCalmClear
4:15 PM55.4 °F48.2 °F77 %29.79 in10.0 miCalmClear
4:35 PM55.4 °F48.2 °F77 %29.79 in10.0 miCalmScattered Clouds
4:55 PM57.2 °F46.4 °F67 %29.78 in10.0 miCalmScattered Clouds
5:15 PM55.4 °F48.2 °F77 %29.78 in10.0 miCalmMostly Cloudy
5:35 PM55.4 °F48.2 °F77 %29.77 in10.0 miCalmMostly Cloudy
5:55 PM55.4 °F48.2 °F77 %29.77 in10.0 miCalmPartly Cloudy
6:15 PM55.4 °F48.2 °F77 %29.76 in9.0 miSSE (150°)3.5 mphRainLight Rain
6:35 PM53.6 °F48.2 °F82 %29.76 in9.0 miSouth (170°)5.8 mphRainLight Rain
7:15 PM53.6 °F48.2 °F82 %29.74 in9.0 miSouth (180°)10.4 mph18.4 mphMostly Cloudy
7:35 PM51.8 °F48.2 °F88 %29.73 in7.0 miSouth (180°)12.7 mph19.6 mphRainLight Rain
8:15 PM50.0 °F46.4 °F87 %29.73 in6.0 miSouth (180°)8.1 mph19.6 mphRainLight Rain
8:35 PM50.0 °F48.2 °F94 %29.73 in8.0 miSouth (170°)6.9 mph18.4 mphRainLight Rain
8:55 PM50.0 °F48.2 °F94 %29.73 in10.0 miSouth (180°)6.9 mphMostly Cloudy
9:15 PM50.0 °F46.4 °F87 %29.73 in10.0 miSouth (180°)8.1 mphOvercast
9:35 PM50.0 °F46.4 °F87 %29.73 in10.0 miSouth (180°)6.9 mphOvercast
9:55 PM50.0 °F46.4 °F87 %29.73 in10.0 miSouth (180°)10.4 mph16.1 mphOvercast
10:15 PM50.0 °F46.4 °F87 %29.72 in10.0 miSouth (180°)9.2 mph16.1 mphMostly Cloudy
10:35 PM50.0 °F44.6 °F82 %29.72 in10.0 miSouth (180°)10.4 mph17.3 mphPartly Cloudy
10:55 PM50.0 °F44.6 °F82 %29.71 in10.0 miSouth (180°)12.7 mph20.7 mphClear
11:15 PM50.0 °F44.6 °F82 %29.70 in10.0 miSouth (180°)9.2 mph19.6 mphClear
11:35 PM50.0 °F44.6 °F82 %29.69 in10.0 miSouth (180°)11.5 mph21.9 mphRainLight Rain
11:55 PM50.0 °F44.6 °F82 %29.68 in8.0 miSouth (180°)9.2 mph17.3 mphRainLight Rain
Hourly data recorded from CZBB, located miles away from Steveston, British Columbia







STORIES FROM OUR PARTNERS